Location: ?????
(55.8833°N, 37.6500°E)
Time: 16:56:25
(UTC+00:00)

MetOp-A - Pass Details

Date: 27 February 2020
Orbit: 819 x 821 km, 98.5° (Epoch: 29 March)

Event Time Altitude Azimuth Distance (km) Brightness Sun altitude
Exits shadow 17:05:28 21° 147° (SSE) 1,757 5.5 -18.5°
Maximum altitude 17:09:03 69° 69° (ENE) 880 4.1 -19.0°
Drops below altitude 10° 17:14:24 10° 347° (NNW) 2,433 6.9 -19.7°
Sets 17:16:46 0° 345° (NNW) 3,370 7.7 -20.1°
